NORTHEAST SUFFOLK  -  Winter Storm Watch Winter Storm Watch        NORTHERN NASSAU  -  Winter Storm Watch Winter Storm Watch        NORTHERN QUEENS  -  Winter Storm Watch Winter Storm Watch        NORTHWEST SUFFOLK  -  Winter Storm Watch Winter Storm Watch        SOUTHEAST SUFFOLK  -  Winter Storm Watch Winter Storm Watch        SOUTHERN NASSAU  -  Winter Storm Watch Winter Storm Watch        SOUTHERN QUEENS  -  Winter Storm Watch Winter Storm Watch        SOUTHWEST SUFFOLK  -  Winter Storm Watch Winter Storm Watch      

Active alerts

Northern Queens
  Details for Northern Queens Winter Storm Watch
Southern Queens
  Details for Southern Queens Winter Storm Watch
Northern Nassau
  Details for Northern Nassau Winter Storm Watch
Southern Nassau
  Details for Southern Nassau Winter Storm Watch
Northwest Suffolk
  Details for Northwest Suffolk Winter Storm Watch
Southwest Suffolk
  Details for Southwest Suffolk Winter Storm Watch
Northeast Suffolk
  Details for Northeast Suffolk Winter Storm Watch
Southeast Suffolk
  Details for Southeast Suffolk Winter Storm Watch


WXM80 ListenWXM80 Stop

You find our weather info also at:

UK Metoffice

WeatherCloud

Weather Underground

Northeastern Weather Network

AWEKAS

Citizen Weather Observer Program (CWOP)

HAMweather, WeatherForYou, PWS Weather


Weather Underground History page Text

Daily Summary for September 27, 2017 Units:  English    Metric   Both
« Previous Day
Next Day »
Daily Weekly Monthly Yearly Custom
  High: Low: Average:
Temperature: 79.6 °F 67.0 °F 72.6 °F
Dew Point: 74.6 °F 64.7 °F 70.5 °F
Humidity: 98 % 84 % 93 %
Wind Speed: 4.6 mph 0.0 mph 0.6 mph
Wind Gust: 8.1 mph - -
Wind:- - ENE
Pressure: 29.85 in 29.63 in -
Precipitation: 0.00 in    
Historical Graphs
 
 
Tabular Data for September 27, 2017
Time Temperature Dew Point Pressure Wind Wind Speed Wind Gust Humidity Rainfall Rate (Hourly)
00:02 67.6 °F 64.9 °F 29.85 in Calm     91 % 0.00 in
00:07 67.6 °F 65.2 °F 29.85 in Calm     92 % 0.00 in
00:12 67.5 °F 65.1 °F 29.85 in Calm     92 % 0.00 in
00:17 67.4 °F 65.0 °F 29.85 in Calm     92 % 0.00 in
00:22 67.4 °F 65.0 °F 29.85 in Calm     92 % 0.00 in
00:27 67.3 °F 64.9 °F 29.85 in Calm     92 % 0.00 in
00:32 67.2 °F 64.8 °F 29.84 in Calm     92 % 0.00 in
00:37 67.1 °F 64.7 °F 29.85 in Calm     92 % 0.00 in
00:42 67.1 °F 64.7 °F 29.84 in Calm     92 % 0.00 in
00:47 67.1 °F 65.0 °F 29.84 in Calm     93 % 0.00 in
00:48 67.0 °F 64.9 °F 29.84 in Calm     93 % 0.00 in
00:53 67.0 °F 64.9 °F 29.84 in Calm     93 % 0.00 in
00:58 67.1 °F 65.0 °F 29.84 in Calm     93 % 0.00 in
01:03 67.0 °F 65.2 °F 29.84 in Calm     94 % 0.00 in
01:08 67.0 °F 65.2 °F 29.84 in SE 0.2 mph   94 % 0.00 in
01:13 67.0 °F 65.2 °F 29.84 in Calm     94 % 0.00 in
01:18 67.1 °F 65.3 °F 29.84 in Calm     94 % 0.00 in
01:23 67.1 °F 65.3 °F 29.84 in SE 0.3 mph 1.2 mph 94 % 0.00 in
01:28 67.1 °F 65.3 °F 29.83 in North 0.9 mph 2.0 mph 94 % 0.00 in
01:33 67.2 °F 65.7 °F 29.84 in North 0.3 mph 1.2 mph 95 % 0.00 in
01:39 67.3 °F 65.8 °F 29.83 in North 0.4 mph 3.5 mph 95 % 0.00 in
01:44 67.4 °F 65.9 °F 29.84 in Calm   2.3 mph 95 % 0.00 in
01:49 67.6 °F 66.4 °F 29.84 in NNE 0.7 mph 3.5 mph 96 % 0.00 in
01:54 67.7 °F 66.5 °F 29.84 in Calm     96 % 0.00 in
01:59 67.8 °F 66.6 °F 29.83 in NNE 1.4 mph 3.5 mph 96 % 0.00 in
02:04 67.9 °F 66.7 °F 29.84 in Calm     96 % 0.00 in
02:09 67.9 °F 66.7 °F 29.84 in Calm     96 % 0.00 in
02:14 67.9 °F 66.7 °F 29.83 in Calm     96 % 0.00 in
02:19 67.9 °F 66.7 °F 29.83 in Calm     96 % 0.00 in
02:24 67.9 °F 66.7 °F 29.83 in Calm     96 % 0.00 in
02:30 67.9 °F 66.7 °F 29.83 in Calm     96 % 0.00 in
02:35 67.9 °F 66.7 °F 29.83 in Calm     96 % 0.00 in
02:40 67.9 °F 66.7 °F 29.84 in Calm     96 % 0.00 in
02:45 67.9 °F 66.7 °F 29.83 in Calm     96 % 0.00 in
02:50 67.9 °F 66.7 °F 29.83 in Calm     96 % 0.00 in
02:55 67.9 °F 66.7 °F 29.83 in Calm     96 % 0.00 in
03:00 67.9 °F 66.7 °F 29.83 in Calm     96 % 0.00 in
03:05 67.9 °F 66.7 °F 29.83 in Calm     96 % 0.00 in
03:10 67.9 °F 66.7 °F 29.83 in Calm     96 % 0.00 in
03:15 67.8 °F 66.6 °F 29.83 in Calm     96 % 0.00 in
03:20 67.8 °F 66.6 °F 29.83 in Calm     96 % 0.00 in
03:26 67.8 °F 66.6 °F 29.82 in Calm     96 % 0.00 in
03:31 67.7 °F 66.2 °F 29.82 in Calm   1.0 mph 95 % 0.00 in
03:33 67.7 °F 66.2 °F 29.82 in NNE 0.2 mph 1.2 mph 95 % 0.00 in
03:39 67.6 °F 66.1 °F 29.82 in Calm     95 % 0.00 in
03:44 67.6 °F 66.1 °F 29.82 in Calm     95 % 0.00 in
03:49 67.5 °F 66.0 °F 29.82 in Calm     95 % 0.00 in
03:54 67.5 °F 66.0 °F 29.82 in Calm     95 % 0.00 in
03:59 67.4 °F 65.9 °F 29.82 in Calm     95 % 0.00 in
04:04 67.4 °F 65.9 °F 29.82 in Calm     95 % 0.00 in
04:09 67.3 °F 65.8 °F 29.82 in Calm     95 % 0.00 in
04:14 67.3 °F 65.8 °F 29.82 in Calm     95 % 0.00 in
04:19 67.3 °F 65.8 °F 29.82 in Calm     95 % 0.00 in
04:24 67.2 °F 65.7 °F 29.82 in Calm     95 % 0.00 in
04:29 67.2 °F 66.0 °F 29.82 in Calm     96 % 0.00 in
04:34 67.2 °F 66.0 °F 29.81 in Calm     96 % 0.00 in
04:39 67.2 °F 66.0 °F 29.81 in NNE 0.1 mph 1.2 mph 96 % 0.00 in
04:44 67.3 °F 66.1 °F 29.82 in Calm     96 % 0.00 in
04:49 67.4 °F 66.2 °F 29.81 in Calm     96 % 0.00 in
04:54 67.4 °F 66.2 °F 29.81 in Calm     96 % 0.00 in
04:59 67.4 °F 66.2 °F 29.81 in NNE 0.1 mph 1.2 mph 96 % 0.00 in
05:04 67.6 °F 66.4 °F 29.81 in NNE 0.3 mph 2.3 mph 96 % 0.00 in
05:06 67.5 °F 66.3 °F 29.81 in Calm   2.0 mph 96 % 0.00 in
05:11 67.6 °F 66.4 °F 29.81 in Calm     96 % 0.00 in
05:15 67.8 °F 66.9 °F 29.81 in Calm     97 % 0.00 in
05:18 67.9 °F 67.0 °F 29.81 in Calm     97 % 0.00 in
05:23 68.2 °F 67.3 °F 29.81 in NNE 0.1 mph 1.2 mph 97 % 0.00 in
05:28 68.6 °F 67.7 °F 29.81 in NE 1.0 mph 3.5 mph 97 % 0.00 in
05:33 69.1 °F 68.5 °F 29.81 in NE 0.1 mph 1.2 mph 98 % 0.00 in
05:38 69.4 °F 68.5 °F 29.81 in NE 0.6 mph 2.3 mph 97 % 0.00 in
05:43 69.7 °F 68.8 °F 29.81 in ENE 0.5 mph 4.0 mph 97 % 0.00 in
05:48 69.8 °F 69.2 °F 29.81 in ENE 1.6 mph 3.5 mph 98 % 0.00 in
05:53 69.9 °F 69.3 °F 29.81 in Calm   1.2 mph 98 % 0.00 in
05:58 69.9 °F 69.3 °F 29.81 in Calm     98 % 0.00 in
06:03 70.0 °F 69.4 °F 29.81 in Calm   1.0 mph 98 % 0.00 in
06:08 70.1 °F 69.2 °F 29.81 in Calm   1.2 mph 97 % 0.00 in
06:13 70.1 °F 69.2 °F 29.81 in Calm   1.2 mph 97 % 0.00 in
06:18 70.1 °F 69.2 °F 29.81 in ENE 0.2 mph 1.2 mph 97 % 0.00 in
06:23 70.1 °F 69.2 °F 29.82 in Calm   1.2 mph 97 % 0.00 in
06:29 70.1 °F 69.2 °F 29.82 in ENE 0.3 mph 1.2 mph 97 % 0.00 in
06:30 70.1 °F 69.2 °F 29.82 in NE 0.8 mph 3.5 mph 97 % 0.00 in
06:35 70.2 °F 69.3 °F 29.82 in Calm     97 % 0.00 in
06:40 70.2 °F 69.3 °F 29.82 in ENE 1.5 mph 3.5 mph 97 % 0.00 in
06:45 70.2 °F 69.3 °F 29.82 in Calm   2.3 mph 97 % 0.00 in
06:50 70.2 °F 69.3 °F 29.82 in ENE 0.4 mph 2.3 mph 97 % 0.00 in
06:56 70.3 °F 69.4 °F 29.82 in Calm   1.2 mph 97 % 0.00 in
07:01 70.3 °F 69.4 °F 29.82 in ENE 0.4 mph 1.2 mph 97 % 0.00 in
07:06 70.3 °F 69.4 °F 29.83 in Calm   4.0 mph 97 % 0.00 in
07:11 70.4 °F 69.5 °F 29.82 in NE 0.2 mph 3.5 mph 97 % 0.00 in
07:15 70.3 °F 69.4 °F 29.82 in ENE 1.0 mph 4.0 mph 97 % 0.00 in
07:20 70.4 °F 69.8 °F 29.82 in NE 1.7 mph 4.0 mph 98 % 0.00 in
07:25 70.4 °F 69.8 °F 29.82 in NE 1.6 mph 3.0 mph 98 % 0.00 in
07:30 70.4 °F 69.8 °F 29.82 in NE 2.0 mph 7.0 mph 98 % 0.00 in
07:35 70.4 °F 69.8 °F 29.82 in NNE 2.6 mph 3.5 mph 98 % 0.00 in
07:40 70.4 °F 69.8 °F 29.82 in NNE 1.0 mph 5.0 mph 98 % 0.00 in
07:46 70.4 °F 69.8 °F 29.82 in NE 1.0 mph 4.0 mph 98 % 0.00 in
07:50 70.3 °F 69.4 °F 29.82 in ENE 1.0 mph 5.0 mph 97 % 0.00 in
07:56 70.3 °F 69.4 °F 29.82 in NE 1.0 mph 4.0 mph 97 % 0.00 in
08:01 70.3 °F 69.4 °F 29.82 in NNE 0.4 mph 4.6 mph 97 % 0.00 in
08:06 70.3 °F 69.4 °F 29.82 in NE 1.8 mph 3.5 mph 97 % 0.00 in
08:11 70.2 °F 69.3 °F 29.82 in NE 1.4 mph 3.5 mph 97 % 0.00 in
08:16 70.2 °F 69.3 °F 29.82 in ENE 2.2 mph 3.5 mph 97 % 0.00 in
08:21 70.2 °F 69.3 °F 29.82 in ENE 1.8 mph 3.5 mph 97 % 0.00 in
08:26 70.2 °F 69.3 °F 29.81 in NE 0.3 mph 3.5 mph 97 % 0.00 in
08:31 70.2 °F 69.3 °F 29.81 in NE 2.3 mph 5.0 mph 97 % 0.00 in
08:36 70.2 °F 69.3 °F 29.82 in NE 1.0 mph 3.5 mph 97 % 0.00 in
08:41 70.3 °F 69.4 °F 29.82 in NE 0.1 mph 1.2 mph 97 % 0.00 in
08:46 70.3 °F 69.4 °F 29.82 in NE 1.8 mph 6.9 mph 97 % 0.00 in
08:51 70.4 °F 69.5 °F 29.82 in NE 1.3 mph 3.5 mph 97 % 0.00 in
08:56 70.4 °F 69.5 °F 29.82 in NE 1.7 mph 8.1 mph 97 % 0.00 in
09:02 70.5 °F 69.6 °F 29.82 in NE 2.3 mph 3.5 mph 97 % 0.00 in
09:07 70.5 °F 69.6 °F 29.82 in NE 1.8 mph 3.5 mph 97 % 0.00 in
09:12 70.6 °F 69.7 °F 29.82 in ENE 0.8 mph 2.3 mph 97 % 0.00 in
09:17 70.6 °F 69.7 °F 29.82 in NE 1.3 mph 5.0 mph 97 % 0.00 in
09:22 70.7 °F 69.8 °F 29.82 in ENE 2.2 mph 5.8 mph 97 % 0.00 in
09:27 70.7 °F 69.8 °F 29.82 in NE 0.2 mph 1.2 mph 97 % 0.00 in
09:32 70.8 °F 69.9 °F 29.82 in NE 2.9 mph 4.6 mph 97 % 0.00 in
09:37 70.8 °F 69.9 °F 29.82 in ENE 1.3 mph 3.5 mph 97 % 0.00 in
09:42 71.0 °F 70.1 °F 29.82 in ENE 1.3 mph 4.6 mph 97 % 0.00 in
09:47 71.0 °F 70.1 °F 29.82 in East 0.6 mph 3.0 mph 97 % 0.00 in
09:52 71.1 °F 70.2 °F 29.82 in NE 0.1 mph 1.0 mph 97 % 0.00 in
09:57 71.2 °F 70.3 °F 29.81 in ENE 0.7 mph 3.5 mph 97 % 0.00 in
09:58 71.2 °F 70.3 °F 29.81 in ENE 0.3 mph 2.3 mph 97 % 0.00 in
10:03 71.4 °F 70.5 °F 29.81 in ENE 0.3 mph 1.2 mph 97 % 0.00 in
10:08 71.5 °F 70.6 °F 29.81 in NE 0.9 mph 3.5 mph 97 % 0.00 in
10:13 71.6 °F 70.7 °F 29.81 in NE 1.4 mph 3.0 mph 97 % 0.00 in
10:18 71.7 °F 70.5 °F 29.81 in Calm   1.2 mph 96 % 0.00 in
10:23 71.9 °F 70.7 °F 29.80 in NE 1.6 mph 3.5 mph 96 % 0.00 in
10:28 72.1 °F 70.9 °F 29.80 in NE 1.3 mph 3.0 mph 96 % 0.00 in
10:33 72.2 °F 71.0 °F 29.80 in ENE 0.7 mph 2.0 mph 96 % 0.00 in
10:38 72.3 °F 71.1 °F 29.80 in NE 1.2 mph 2.3 mph 96 % 0.00 in
10:43 72.4 °F 71.2 °F 29.80 in ENE 2.4 mph 4.6 mph 96 % 0.00 in
10:48 72.5 °F 71.0 °F 29.80 in ENE 0.1 mph 4.6 mph 95 % 0.00 in
10:53 72.6 °F 71.1 °F 29.80 in ENE 1.2 mph 2.3 mph 95 % 0.00 in
10:58 72.7 °F 71.2 °F 29.80 in ENE 0.1 mph 1.2 mph 95 % 0.00 in
11:03 72.9 °F 71.4 °F 29.80 in Calm   1.2 mph 95 % 0.00 in
11:08 73.1 °F 71.6 °F 29.80 in NE 0.2 mph 1.2 mph 95 % 0.00 in
11:13 73.2 °F 71.7 °F 29.80 in NE 0.4 mph 2.3 mph 95 % 0.00 in
11:18 73.4 °F 71.9 °F 29.80 in NE 0.1 mph 1.2 mph 95 % 0.00 in
11:23 73.6 °F 72.1 °F 29.80 in NE 0.2 mph 1.2 mph 95 % 0.00 in
11:28 73.8 °F 72.3 °F 29.80 in NE 0.7 mph 1.2 mph 95 % 0.00 in
11:33 74.0 °F 72.2 °F 29.80 in NE 0.2 mph 1.2 mph 94 % 0.00 in
11:39 74.3 °F 72.5 °F 29.80 in NE 0.1 mph 1.2 mph 94 % 0.00 in
11:44 74.6 °F 72.8 °F 29.80 in NE 0.6 mph 2.3 mph 94 % 0.00 in
11:49 74.7 °F 72.5 °F 29.80 in East 1.5 mph 3.5 mph 93 % 0.00 in
11:54 74.8 °F 72.3 °F 29.79 in NE 1.6 mph 5.0 mph 92 % 0.00 in
11:59 75.0 °F 72.5 °F 29.79 in Calm     92 % 0.00 in
12:04 75.4 °F 72.9 °F 29.79 in ENE 0.6 mph 2.3 mph 92 % 0.00 in
12:09 75.6 °F 72.8 °F 29.78 in NE 2.9 mph 4.6 mph 91 % 0.00 in
12:14 75.9 °F 73.1 °F 29.78 in North 0.5 mph 3.5 mph 91 % 0.00 in
12:19 76.3 °F 73.1 °F 29.78 in ENE 1.2 mph 3.5 mph 90 % 0.00 in
12:24 76.6 °F 73.1 °F 29.78 in ENE 1.9 mph 3.5 mph 89 % 0.00 in
12:29 76.7 °F 72.9 °F 29.78 in NE 0.8 mph 2.0 mph 88 % 0.00 in
12:34 76.8 °F 73.0 °F 29.77 in ENE 1.4 mph 3.0 mph 88 % 0.00 in
12:39 76.9 °F 73.1 °F 29.77 in NE 1.5 mph 4.6 mph 88 % 0.00 in
12:44 77.0 °F 72.8 °F 29.77 in NE 0.5 mph 2.3 mph 87 % 0.00 in
12:49 77.1 °F 72.9 °F 29.77 in ENE 2.1 mph 4.6 mph 87 % 0.00 in
12:54 77.5 °F 73.7 °F 29.77 in ENE 3.9 mph 8.1 mph 88 % 0.00 in
12:59 77.4 °F 72.9 °F 29.76 in NE 2.5 mph 3.5 mph 86 % 0.00 in
13:04 77.4 °F 73.2 °F 29.77 in ENE 1.3 mph 3.5 mph 87 % 0.00 in
13:09 77.4 °F 73.2 °F 29.76 in ENE 0.7 mph 3.5 mph 87 % 0.00 in
13:14 77.6 °F 73.4 °F 29.76 in NNE 3.2 mph 5.8 mph 87 % 0.00 in
13:19 77.8 °F 73.6 °F 29.76 in NNE 2.1 mph 5.8 mph 87 % 0.00 in
13:24 77.8 °F 73.3 °F 29.75 in NNW 2.5 mph 5.0 mph 86 % 0.00 in
13:29 77.8 °F 73.3 °F 29.75 in NNE 4.6 mph 6.9 mph 86 % 0.00 in
13:34 77.8 °F 73.3 °F 29.75 in ENE 1.5 mph 4.0 mph 86 % 0.00 in
13:39 77.8 °F 72.9 °F 29.76 in North 1.1 mph 3.5 mph 85 % 0.00 in
13:44 77.7 °F 73.2 °F 29.75 in NNE 2.4 mph 6.9 mph 86 % 0.00 in
13:49 77.7 °F 73.2 °F 29.75 in NE 1.1 mph 3.5 mph 86 % 0.00 in
13:54 77.6 °F 72.7 °F 29.75 in ENE 3.0 mph 6.9 mph 85 % 0.00 in
13:59 77.4 °F 72.5 °F 29.74 in ENE 1.6 mph 3.5 mph 85 % 0.00 in
14:04 77.2 °F 72.7 °F 29.75 in ENE 0.8 mph 4.6 mph 86 % 0.00 in
14:09 77.2 °F 73.0 °F 29.75 in ENE 1.3 mph 3.0 mph 87 % 0.00 in
14:14 77.1 °F 72.9 °F 29.74 in ENE 0.6 mph 2.3 mph 87 % 0.00 in
14:19 77.2 °F 73.4 °F 29.74 in NE 0.1 mph 1.2 mph 88 % 0.00 in
14:24 77.4 °F 73.6 °F 29.74 in NE 0.2 mph   88 % 0.00 in
14:29 77.7 °F 73.9 °F 29.74 in ENE 1.4 mph 4.0 mph 88 % 0.00 in
14:34 78.0 °F 73.8 °F 29.73 in NE 2.2 mph 3.5 mph 87 % 0.00 in
14:38 78.2 °F 74.0 °F 29.73 in NE 0.6 mph 2.3 mph 87 % 0.00 in
14:43 78.5 °F 74.0 °F 29.73 in NE 1.4 mph 3.5 mph 86 % 0.00 in
14:48 78.6 °F 73.7 °F 29.73 in NE 0.5 mph 2.3 mph 85 % 0.00 in
14:53 78.7 °F 74.2 °F 29.73 in NE 0.2 mph 1.2 mph 86 % 0.00 in
14:58 78.9 °F 74.0 °F 29.72 in ENE 1.1 mph 2.3 mph 85 % 0.00 in
15:03 79.1 °F 74.2 °F 29.72 in ENE 0.6 mph 2.3 mph 85 % 0.00 in
15:08 79.2 °F 73.9 °F 29.71 in ENE 1.5 mph 3.5 mph 84 % 0.00 in
15:13 79.3 °F 74.4 °F 29.71 in ENE 2.2 mph 3.5 mph 85 % 0.00 in
15:18 79.4 °F 74.1 °F 29.71 in ENE 0.4 mph 3.5 mph 84 % 0.00 in
15:23 79.4 °F 74.1 °F 29.71 in NE 0.5 mph 3.5 mph 84 % 0.00 in
15:28 79.5 °F 74.6 °F 29.71 in ENE 1.8 mph 3.0 mph 85 % 0.00 in
15:33 79.6 °F 74.3 °F 29.70 in NE 0.9 mph 3.5 mph 84 % 0.00 in
15:38 79.5 °F 74.2 °F 29.70 in NE 0.8 mph 1.2 mph 84 % 0.00 in
15:43 79.6 °F 74.3 °F 29.70 in NE 1.6 mph 3.5 mph 84 % 0.00 in
15:48 79.4 °F 74.1 °F 29.70 in North 2.1 mph 3.5 mph 84 % 0.00 in
15:53 79.4 °F 74.1 °F 29.70 in East 2.6 mph 3.5 mph 84 % 0.00 in
15:58 79.2 °F 73.9 °F 29.70 in ENE 3.1 mph 6.9 mph 84 % 0.00 in
16:03 78.9 °F 73.7 °F 29.70 in NE 1.4 mph 3.5 mph 84 % 0.00 in
16:09 78.8 °F 74.3 °F 29.70 in NE 1.0 mph 3.5 mph 86 % 0.00 in
16:14 78.5 °F 74.0 °F 29.70 in NE 0.8 mph 3.5 mph 86 % 0.00 in
16:19 78.4 °F 73.9 °F 29.70 in ENE 3.4 mph 8.1 mph 86 % 0.00 in
16:24 78.2 °F 73.7 °F 29.70 in NE 1.5 mph 3.5 mph 86 % 0.00 in
16:29 78.0 °F 73.8 °F 29.70 in Calm   1.2 mph 87 % 0.00 in
16:34 77.8 °F 74.0 °F 29.70 in NE 1.0 mph 3.5 mph 88 % 0.00 in
16:39 77.6 °F 73.8 °F 29.69 in Calm   1.2 mph 88 % 0.00 in
16:44 77.5 °F 73.7 °F 29.70 in ENE 1.4 mph 3.5 mph 88 % 0.00 in
16:49 77.3 °F 73.5 °F 29.69 in ENE 0.4 mph 2.3 mph 88 % 0.00 in
16:54 77.3 °F 73.8 °F 29.70 in ENE 0.3 mph 1.2 mph 89 % 0.00 in
16:59 77.1 °F 73.6 °F 29.69 in ENE 0.1 mph 1.0 mph 89 % 0.00 in
17:04 77.1 °F 73.6 °F 29.69 in ENE 0.3 mph 1.2 mph 89 % 0.00 in
17:09 77.0 °F 73.5 °F 29.70 in SE 0.3 mph 1.2 mph 89 % 0.00 in
17:14 76.9 °F 73.7 °F 29.70 in NE 0.9 mph 2.3 mph 90 % 0.00 in
17:19 76.8 °F 73.6 °F 29.70 in NE 0.5 mph 2.3 mph 90 % 0.00 in
17:24 76.7 °F 73.5 °F 29.70 in NE 0.8 mph 2.3 mph 90 % 0.00 in
17:29 76.6 °F 73.4 °F 29.69 in NE 0.8 mph 1.2 mph 90 % 0.00 in
17:34 76.6 °F 73.4 °F 29.69 in NE 0.7 mph 3.5 mph 90 % 0.00 in
17:39 76.5 °F 73.7 °F 29.69 in NE 0.4 mph 1.2 mph 91 % 0.00 in
17:44 76.4 °F 73.6 °F 29.69 in Calm   1.2 mph 91 % 0.00 in
17:49 76.3 °F 73.5 °F 29.69 in NE 0.1 mph 2.3 mph 91 % 0.00 in
17:54 76.2 °F 73.4 °F 29.69 in NE 0.1 mph 1.2 mph 91 % 0.00 in
18:00 76.1 °F 73.3 °F 29.69 in Calm     91 % 0.00 in
18:05 76.1 °F 73.3 °F 29.69 in Calm     91 % 0.00 in
18:10 76.0 °F 73.2 °F 29.69 in NE 0.2 mph 1.2 mph 91 % 0.00 in
18:15 75.9 °F 73.4 °F 29.68 in NE 0.1 mph 1.2 mph 92 % 0.00 in
18:20 75.8 °F 73.3 °F 29.68 in Calm     92 % 0.00 in
18:25 75.7 °F 73.2 °F 29.68 in NE 0.2 mph 2.0 mph 92 % 0.00 in
18:30 75.6 °F 73.1 °F 29.68 in NE 0.1 mph 1.2 mph 92 % 0.00 in
18:35 75.5 °F 73.0 °F 29.68 in Calm   1.2 mph 92 % 0.00 in
18:40 75.5 °F 73.0 °F 29.68 in Calm     92 % 0.00 in
18:45 75.3 °F 73.1 °F 29.68 in Calm   1.2 mph 93 % 0.00 in
18:50 75.3 °F 73.1 °F 29.68 in NE 0.1 mph 1.2 mph 93 % 0.00 in
18:55 75.2 °F 73.0 °F 29.68 in Calm     93 % 0.00 in
19:00 75.1 °F 72.9 °F 29.68 in Calm   1.2 mph 93 % 0.00 in
19:05 75.0 °F 72.8 °F 29.68 in Calm     93 % 0.00 in
19:10 74.8 °F 72.6 °F 29.68 in Calm     93 % 0.00 in
19:15 74.8 °F 72.6 °F 29.68 in NE 0.5 mph 3.5 mph 93 % 0.00 in
19:20 74.7 °F 72.9 °F 29.68 in NE 0.5 mph 1.2 mph 94 % 0.00 in
19:25 74.6 °F 72.8 °F 29.67 in NE 0.6 mph 3.5 mph 94 % 0.00 in
19:30 74.6 °F 72.8 °F 29.68 in Calm     94 % 0.00 in
19:35 74.5 °F 72.7 °F 29.67 in Calm     94 % 0.00 in
19:40 74.4 °F 72.6 °F 29.67 in Calm     94 % 0.00 in
19:45 74.4 °F 72.6 °F 29.67 in Calm     94 % 0.00 in
19:50 74.3 °F 72.5 °F 29.68 in Calm     94 % 0.00 in
19:55 74.2 °F 72.4 °F 29.68 in Calm     94 % 0.00 in
20:00 74.2 °F 72.4 °F 29.68 in Calm     94 % 0.00 in
20:05 74.1 °F 72.3 °F 29.68 in Calm     94 % 0.00 in
20:10 74.0 °F 72.5 °F 29.68 in Calm   1.2 mph 95 % 0.00 in
20:15 74.0 °F 72.2 °F 29.68 in Calm     94 % 0.00 in
20:20 74.0 °F 72.5 °F 29.68 in Calm     95 % 0.00 in
20:26 73.9 °F 72.4 °F 29.68 in Calm     95 % 0.00 in
20:31 73.8 °F 72.3 °F 29.68 in Calm     95 % 0.00 in
20:36 73.7 °F 72.2 °F 29.68 in Calm     95 % 0.00 in
20:41 73.7 °F 72.2 °F 29.68 in Calm     95 % 0.00 in
20:46 73.6 °F 72.1 °F 29.68 in Calm     95 % 0.00 in
20:51 73.5 °F 72.0 °F 29.69 in Calm     95 % 0.00 in
20:56 73.5 °F 72.0 °F 29.68 in Calm   1.0 mph 95 % 0.00 in
21:01 73.4 °F 71.9 °F 29.68 in Calm     95 % 0.00 in
21:06 73.3 °F 71.8 °F 29.68 in NE 0.2 mph 1.0 mph 95 % 0.00 in
21:11 73.3 °F 71.8 °F 29.68 in Calm     95 % 0.00 in
21:16 73.3 °F 71.8 °F 29.67 in Calm     95 % 0.00 in
21:21 73.2 °F 71.7 °F 29.67 in Calm     95 % 0.00 in
21:26 73.2 °F 71.7 °F 29.68 in Calm     95 % 0.00 in
21:31 73.1 °F 71.6 °F 29.67 in Calm     95 % 0.00 in
21:36 73.1 °F 71.6 °F 29.67 in Calm     95 % 0.00 in
21:41 73.0 °F 71.5 °F 29.67 in Calm   1.2 mph 95 % 0.00 in
21:46 73.0 °F 71.5 °F 29.67 in Calm     95 % 0.00 in
21:51 73.0 °F 71.8 °F 29.67 in Calm     96 % 0.00 in
21:56 73.0 °F 71.8 °F 29.67 in Calm     96 % 0.00 in
22:01 72.9 °F 71.7 °F 29.67 in Calm     96 % 0.00 in
22:06 72.9 °F 71.7 °F 29.67 in Calm     96 % 0.00 in
22:11 72.9 °F 71.7 °F 29.67 in Calm     96 % 0.00 in
22:16 72.9 °F 71.7 °F 29.67 in Calm     96 % 0.00 in
22:21 72.8 °F 71.6 °F 29.67 in Calm     96 % 0.00 in
22:26 72.8 °F 71.6 °F 29.67 in Calm     96 % 0.00 in
22:31 72.9 °F 71.7 °F 29.66 in Calm     96 % 0.00 in
22:36 72.9 °F 71.7 °F 29.66 in Calm     96 % 0.00 in
22:41 72.9 °F 71.7 °F 29.66 in Calm     96 % 0.00 in
22:46 72.9 °F 71.7 °F 29.65 in Calm     96 % 0.00 in
22:51 72.9 °F 71.7 °F 29.65 in Calm     96 % 0.00 in
22:56 72.9 °F 71.7 °F 29.66 in Calm   1.2 mph 96 % 0.00 in
23:01 72.9 °F 71.7 °F 29.65 in Calm     96 % 0.00 in
23:06 72.9 °F 71.7 °F 29.65 in Calm     96 % 0.00 in
23:12 72.9 °F 71.7 °F 29.65 in Calm   1.2 mph 96 % 0.00 in
23:16 72.9 °F 71.7 °F 29.65 in Calm     96 % 0.00 in
23:21 72.8 °F 71.6 °F 29.65 in NE 0.4 mph 2.3 mph 96 % 0.00 in
23:27 72.9 °F 71.7 °F 29.65 in NNE 1.5 mph 3.5 mph 96 % 0.00 in
23:32 72.9 °F 71.7 °F 29.64 in NNE 0.5 mph 1.2 mph 96 % 0.00 in
23:37 73.0 °F 71.8 °F 29.64 in ENE 0.6 mph 2.3 mph 96 % 0.00 in
23:42 73.0 °F 72.1 °F 29.64 in ENE 0.1 mph 1.2 mph 97 % 0.00 in
23:47 73.0 °F 72.1 °F 29.64 in ENE 0.5 mph 2.3 mph 97 % 0.00 in
23:52 73.0 °F 72.1 °F 29.64 in ENE 0.1 mph 1.2 mph 97 % 0.00 in
23:57 73.1 °F 72.2 °F 29.63 in Calm     97 % 0.00 in
Crab Meadow Weather
Compliments of Weather Underground - 3 mb

Script developed by  Jim McMurry - jmcmurry@mwt.net Adapted for the template by  Wim van der Kuil - Leuven-Template.eu

Weather Terms: Degree Day - Gauges the amount of heating or cooling needed for a building using 65 degrees as a baseline. To compute degree days, the average temperature for a day is taken and referenced to 65. An average temperature of 50 yields 15 heating degree days, while an average temperature of 75 would yield 10 cooling degree days.